Regional Weather Roundup
Issued by NWS Columbia, SC

Home | Current Version | Previous Version | Text Only | Print | Product List | Glossary On
Versions: 1 2 3 4 5 6 7 8 9 10 11 12 13 14 15 16 17 18 19 20 21 22 23 24 25 26 27
000
ASUS42 KCAE 011410
RWRCAE
REGIONAL WEATHER ROUNDUP
NATIONAL WEATHER SERVICE COLUMBIA SC
1000 AM EDT SUN MAY 01 2016

NOTE: "FAIR" INDICATES FEW OR NO CLOUDS BELOW 12,000 FEET WITH NO
SIGNIFICANT WEATHER AND/OR OBSTRUCTIONS TO VISIBILITY.

NOT ALL STATIONS ARE QUALITY CONTROLLED BY THE NATIONAL
WEATHER SERVICE. USE DATA WITH CAUTION...ESPECIALLY
DEWPOINT OBSERVATIONS.

SCZ001>056-GAZ040-063>065-077-011500-
...UPSTATE SOUTH CAROLINA...

CITY           SKY/WX    TMP DP  RH WIND       PRES   REMARKS
ANDERSON       PTSUNNY   70  68  93 SW8       30.04S
LIBERTY          N/A     67  65  94 CALM      30.04S
SPARTANBURG    CLOUDY    63  61  94 E3        30.05S
CLEMSON        CLOUDY    71  66  84 SW3       30.05S
GREENVILLE     CLOUDY    68  65  90 CALM      30.06R
GREENWOOD      CLOUDY    74  68  81 SW12      30.06R
GREER          CLOUDY    67  63  87 CALM      30.05R
ROCK HILL        N/A    N/A N/A N/A MISG      30.07R
CHESTER        RAIN      63  63 100 CALM      30.07S
LAURENS        CLOUDY    70  68  94 SW7       30.05R


...CENTRAL SOUTH CAROLINA...

CITY           SKY/WX    TMP DP  RH WIND       PRES   REMARKS
COLUMBIA APT   CLOUDY    73  69  87 S8        30.05R
COLUMBIA OWENS CLOUDY    71  69  93 S5        30.07R
MCENTIRE ANGB  CLOUDY    71  69  95 SE7       30.07R
ORANGEBURG     CLOUDY    75  69  81 S12       30.07R
SUMTER SHAW    CLOUDY    72  68  88 S6        30.05R
NEWBERRY       LGT RAIN  70  68  94 SW7       30.08R
AIKEN          CLOUDY    72  68  88 S10       30.09R
BARNWELL       PTSUNNY   79  73  83 S9        30.07R
CAMDEN         RAIN      68  66  94 VRB5      30.07S
LANCASTER      FOG       64  64 100 E5        30.10R VSB 3/4
WINNSBORO      CLOUDY    68  68 100 SE8       30.05R


...EASTERN AND COASTAL SOUTH CAROLINA...

CITY           SKY/WX    TMP DP  RH WIND       PRES   REMARKS
MYRTLE BEACH   MOSUNNY   77  63  61 S14       30.11F
N MYRTLE BCH   PTSUNNY   74  66  76 SE9       30.10S
CONWAY         FAIR      75  64  69 S13       30.09S HAZE
MARION         CLOUDY    70  64  83 CALM      30.10R
HARTSVILLE     CLOUDY   N/A N/A N/A S3        30.10R
FLORENCE       CLOUDY    72  66  81 S6        30.10R
CHARLESTON APT PTSUNNY   79  67  66 S10       30.08R
MOUNT PLEASANT FAIR      79  70  73 S12G17    30.09S
WALTERBORO     CLOUDY    79  70  73 S12       30.08S
BEAUFORT       CLOUDY    79  72  79 S5        30.07S


...EASTERN GEORGIA...

CITY           SKY/WX    TMP DP  RH WIND       PRES   REMARKS
AUGUSTA BUSH F CLOUDY    77  69  76 S9        30.04R
AUGUSTA DANIEL PTSUNNY   78  68  71 S10       30.06R
THOMSON        PTSUNNY   78  72  83 SW7       30.09R
WASHINGTON     PTSUNNY   72  68  88 CALM      30.05R
CLAXTON        PTSUNNY   77  71  81 SE9       30.07R
SYLVANIA       MOSUNNY   79  71  77 SW7       30.07S
STATESBORO     PTSUNNY   83  73  72 S14       30.06S
SAVANNAH       CLOUDY    80  69  69 S10       30.08R


...SOUTHERN NORTH CAROLINA...

CITY           SKY/WX    TMP DP  RH WIND       PRES   REMARKS
CHARLOTTE      PTSUNNY   66  64  93 S6        30.07R
MONROE         RAIN      65  64  97 VRB5      30.08F FOG
WADESBORO      HVY RAIN  67  67 100 S7        30.11R
ROCKINGHAM     CLOUDY    66  64  90 S6        30.10R
RUTHERFORDTON  MOSUNNY   64  61  93 CALM      30.07R
ASHEVILLE      CLOUDY    66  61  84 CALM      30.08R

$$




USA.gov is the U.S. government's official web portal to all federal, state and local government web resources and services.